Wind_Speed
49 51 50 49 49 49 49 47 45 43 40 37 38 39 40 39 34 34 34 24 26 22 29 30 24 23 23 22 25 31 24 26 27 33 36 37 51 40 32 31 34 39 35 34 35 29 25 18 20 16 18 26 26 26
50 50 51 51 50 50 47 45 43 39 39 38 38 38 36 32 32 32 29 28 28 27 26 31 25 22 23 21 23 24 29 27 26 32 37 34 31 42 38 36 31 36 38 33 28 29 27 25 22 26 22 29 26 26
51 52 52 51 50 48 45 42 42 41 42 41 41 39 39 36 34 33 35 34 30 24 22 27 22 22 23 20 23 25 26 27 27 28 34 40 45 44 45 41 35 32 28 33 29 30 34 35 40 32 23 26 25 24
54 52 51 50 50 48 44 42 42 43 44 42 40 39 38 38 38 34 29 29 26 18 20 20 21 22 21 23 22 28 30 27 31 29 31 36 41 41 48 45 43 29 42 40 36 31 25 42 38 33 34 29 25 24
51 50 51 49 49 46 42 42 43 45 44 42 39 37 37 36 34 32 26 22 19 17 18 21 18 20 20 23 23 28 28 27 27 29 30 33 36 44 44 55 54 36 24 35 42 38 39 39 39 43 41 33 30 28
52 52 51 49 47 44 42 42 43 46 45 41 38 38 37 32 28 24 19 22 17 16 20 19 17 18 22 23 24 26 29 29 25 28 30 30 35 40 41 43 49 53 29 23 29 40 43 51 54 50 40 38 38 35
56 53 51 50 45 42 41 42 44 46 43 41 35 34 33 27 20 20 20 17 16 18 20 17 16 15 18 21 25 26 26 28 28 27 31 30 32 35 35 45 38 36 41 51 49 42 46 50 50 49 47 45 41 41
53 52 49 48 43 40 40 42 45 43 40 36 32 33 31 26 21 20 16 12 13 15 15 14 13 13 15 20 22 24 28 28 27 30 30 32 35 36 37 39 44 41 43 55 48 54 52 48 52 50 49 45 41 35
48 50 47 43 39 38 39 42 42 39 36 30 29 29 22 16 14 9 9 11 12 12 12 12 12 14 14 16 20 23 27 29 29 30 32 34 36 35 34 39 40 48 47 38 36 36 35 41 39 39 39 36 33 31
48 54 48 40 37 37 38 39 38 36 29 25 24 18 9 12 9 8 10 9 9 10 8 9 7 11 19 19 18 23 26 27 25 30 35 36 37 39 36 32 42 41 34 30 29 35 34 34 27 27 27 28 28 26
48 53 44 35 35 36 36 34 31 30 23 21 19 15 10 10 11 10 7 6 7 7 4 4 4 2 10 16 18 19 20 20 21 20 25 33 41 43 42 34 41 38 36 31 31 27 28 36 33 33 33 26 27 30
47 44 33 32 33 32 31 27 24 23 19 18 15 15 12 11 10 7 6 6 6 3 2 5 3 2 6 14 17 16 20 19 20 19 20 26 34 40 35 36 41 33 36 36 34 35 39 42 34 30 31 34 30 34
48 34 30 31 29 29 26 23 19 20 16 14 13 13 13 12 9 7 6 6 7 4 4 3 3 2 1 9 12 18 9 16 21 18 13 13 28 32 33 34 35 37 37 37 35 37 41 31 41 38 43 39 29 38
35 29 29 27 26 26 23 20 18 18 15 12 13 14 14 12 9 8 8 10 7 3 2 1 5 6 5 2 9 16 22 14 17 21 20 19 23 35 34 35 42 40 36 38 34 36 35 36 33 37 29 39 42 37
27 27 25 24 24 23 20 19 20 17 17 15 14 14 14 12 10 10 10 13 11 6 4 2 3 7 11 11 11 11 13 14 18 14 24 27 30 35 37 41 45 44 48 41 32 32 30 24 22 24 26 24 28 33
25 23 24 23 23 20 19 20 18 16 17 18 16 14 15 12 9 12 11 12 15 12 8 6 5 6 8 9 9 7 10 7 9 6 7 19 23 29 35 41 38 38 42 37 36 35 36 28 21 21 20 23 24 23
21 22 23 23 21 19 19 19 17 17 16 16 15 14 14 12 10 11 12 12 15 14 11 9 6 8 8 9 4 8 7 5 3 3 11 18 23 27 30 35 35 37 44 39 37 34 31 27 23 25 25 24 22 23
20 21 22 21 18 19 19 17 17 15 15 14 14 13 13 12 10 12 14 13 16 14 13 11 3 9 8 10 8 6 3 2 7 14 8 15 21 25 26 30 35 37 44 42 31 30 27 23 21 21 19 19 19 20
19 20 19 17 17 17 16 16 14 13 12 11 11 13 13 13 10 13 15 12 18 17 13 11 8 6 8 8 7 12 7 5 10 6 8 14 19 20 28 30 31 31 34 33 29 26 22 20 20 20 21 23 23 23
18 17 15 14 14 14 14 12 11 10 9 9 11 12 13 12 11 14 15 13 20 19 15 13 12 7 10 8 8 10 7 8 3 6 15 10 16 18 28 32 29 28 29 29 26 24 24 23 23 22 22 21 21 21
15 13 11 11 11 11 10 8 7 5 5 5 5 7 9 11 13 14 14 14 21 19 20 16 13 13 14 11 10 7 6 6 4 9 12 12 22 18 20 20 24 26 28 27 30 25 23 20 19 19 20 19 19 18
10 9 9 10 8 7 6 3 3 4 5 6 4 5 8 10 13 14 13 17 20 19 15 16 14 13 12 9 10 9 6 4 3 12 15 17 19 21 26 26 14 17 21 20 27 23 18 18 17 17 16 16 16 16
9 9 9 6 5 3 2 2 4 6 7 5 10 14 12 16 9 11 15 20 20 17 13 12 16 15 13 10 9 11 7 9 8 6 14 17 13 19 18 15 18 19 17 21 28 24 20 19 18 16 16 16 16 17
8 8 6 5 3 2 3 5 7 8 5 5 9 13 15 11 14 13 14 17 18 17 13 16 17 17 15 13 11 7 8 7 10 13 17 18 13 13 15 15 16 17 19 19 19 19 20 18 17 17 17 16 16 17
5 6 5 4 4 4 6 10 10 8 10 6 13 12 14 11 9 11 14 13 12 10 11 14 16 17 17 15 15 13 9 9 8 9 10 12 16 17 11 13 17 19 19 18 18 17 17 17 16 15 15 15 16 18
7 7 7 7 11 16 13 11 11 14 16 17 16 19 16 15 16 15 13 11 9 9 9 9 10 12 16 18 18 18 18 15 13 16 18 17 15 20 22 21 20 22 21 18 18 17 17 18 17 16 13 12 14 18
9 11 15 21 15 13 13 17 18 18 18 16 14 14 14 13 11 10 8 8 9 9 8 8 7 6 6 8 11 14 17 18 20 21 21 21 20 21 26 26 25 24 23 22 22 23 22 21 20 20 20 17 19 20
16 19 17 15 18 21 22 22 22 20 16 14 12 13 14 13 12 10 10 9 8 8 6 6 5 3 3 4 5 7 8 9 12 14 18 23 28 30 29 26 23 25 28 27 25 25 26 26 26 25 23 23 25 23
17 22 25 25 26 28 29 28 22 18 15 14 15 14 14 13 11 12 13 11 9 8 7 7 5 4 3 1 2 3 4 6 9 13 17 20 21 23 27 31 34 32 34 34 30 27 27 28 29 28 28 29 26 24
29 31 31 26 25 25 23 22 22 22 21 20 19 17 17 14 13 12 11 10 9 9 8 7 7 5 5 3 2 3 4 6 8 9 11 16 18 19 19 20 21 26 33 38 39 39 37 36 36 34 32 27 23 22
32 29 27 26 23 21 21 21 21 21 19 23 21 21 23 22 14 14 14 15 16 12 10 7 5 4 3 5 8 7 5 3 4 5 6 10 14 15 14 13 12 11 12 16 18 20 23 27 26 23 21 21 25 23
28 27 25 23 22 19 18 17 16 15 12 13 12 14 15 14 15 15 12 11 10 8 9 10 11 12 10 8 8 9 8 5 3 2 1 3 5 8 10 10 10 10 8 7 8 9 10 11 12 16 17 17 17 18
27 21 21 23 17 14 14 13 12 13 11 10 9 8 6 5 5 6 7 7 6 6 8 8 10 8 8 10 10 11 11 11 9 4 2 2 4 6 7 8 7 6 6 7 6 11 14 14 13 13 14 8 14 20
Wind_Direction
326 324 323 322 321 324 323 323 323 322 320 315 308 304 301 301 304 303 300 283 276 262 269 265 258 255 256 249 235 234 229 230 224 221 217 213 213 208 208 218 217 222 218 222 221 220 221 227 249 214 220 218 209 215
324 323 322 321 321 322 323 325 324 320 317 313 311 308 303 301 302 310 304 295 278 275 259 263 255 252 250 246 232 226 230 229 226 218 213 210 210 201 200 212 208 227 224 222 221 241 229 225 223 236 235 220 204 216
319 319 318 319 321 321 322 322 320 319 316 313 308 303 298 295 303 304 298 291 295 286 258 262 256 243 246 239 226 220 226 223 219 218 222 214 209 199 200 201 206 217 217 216 222 222 226 221 232 233 219 219 220 215
316 316 316 318 319 321 321 319 316 316 316 315 311 306 301 298 298 299 301 290 293 269 261 257 255 246 240 235 224 216 223 222 224 217 218 215 210 211 201 193 196 197 216 216 209 218 212 229 232 236 237 232 223 220
316 317 316 315 320 319 318 316 314 315 317 316 316 311 301 300 304 300 296 293 281 272 263 268 253 245 241 232 227 221 221 220 221 220 218 215 217 216 207 204 200 201 192 216 220 227 233 232 232 238 238 240 244 242
315 315 314 313 318 318 317 314 314 313 318 317 316 309 314 311 300 300 298 288 272 268 274 270 260 243 234 230 229 225 221 221 222 220 219 218 214 217 207 214 208 201 218 192 205 226 226 233 236 239 241 242 248 252
312 313 311 313 316 315 314 312 312 315 318 318 314 313 311 309 296 302 299 278 262 269 273 271 261 247 234 228 225 226 223 220 223 222 219 215 218 218 213 211 202 200 224 225 215 218 224 237 244 244 248 248 246 249
312 314 309 311 313 313 313 312 312 316 317 319 315 312 309 304 296 297 294 271 262 272 271 268 260 245 231 229 227 224 225 223 223 226 224 220 218 222 214 209 206 209 216 231 228 230 240 248 247 250 250 253 254 250
314 313 310 309 310 310 312 311 314 318 318 316 315 313 309 308 304 292 281 274 275 272 276 272 250 223 218 224 220 218 221 224 227 228 225 221 217 219 214 212 209 218 219 228 225 228 230 239 243 246 249 249 246 244
308 310 307 308 308 309 311 311 316 316 316 313 313 310 320 320 306 296 289 275 268 279 263 257 243 215 207 207 215 219 221 227 233 230 229 225 223 224 221 213 219 223 222 225 223 222 224 230 229 231 233 233 227 227
305 305 306 304 306 309 310 314 313 313 311 306 306 302 307 302 303 303 282 259 272 247 241 218 158 206 226 224 220 215 217 222 225 230 231 226 223 223 223 209 219 218 214 216 217 212 217 216 213 214 215 221 219 218
305 307 300 302 306 306 309 311 310 311 306 300 299 289 294 300 302 288 253 268 215 195 71 16 239 278 258 224 220 224 212 219 223 230 232 219 219 220 215 216 221 216 208 213 212 203 195 188 206 209 219 211 213 223
305 299 298 301 301 304 306 302 306 312 304 293 283 280 284 291 288 252 242 219 184 225 319 31 2 133 137 190 205 204 243 232 225 218 229 234 216 204 203 212 208 208 207 213 213 201 219 205 195 211 227 213 226 222
295 294 296 297 300 301 299 293 299 303 303 291 280 284 286 285 269 239 228 211 205 208 231 77 128 162 133 245 210 232 233 242 237 237 236 229 203 190 202 207 203 197 199 211 213 211 213 219 208 215 222 213 208 225
288 292 291 295 297 294 290 287 293 290 287 285 281 282 282 275 263 235 230 211 200 207 209 215 174 221 204 191 221 234 246 257 266 273 226 207 202 201 205 204 203 195 203 206 219 211 222 231 232 238 242 245 222 219
288 289 290 294 292 287 284 285 287 289 279 275 276 275 273 267 257 233 224 209 204 213 221 229 244 204 208 217 223 247 225 255 282 276 243 196 196 200 204 204 200 204 196 208 207 207 217 226 214 218 226 230 234 237
288 288 292 293 289 282 280 282 285 285 277 272 268 267 260 254 252 226 214 206 202 211 220 216 213 206 216 205 236 237 271 205 260 250 214 186 186 187 189 192 193 199 203 207 207 213 215 221 213 215 220 222 225 229
284 290 294 293 283 277 280 279 285 280 275 269 260 248 240 242 244 220 208 201 195 199 205 203 126 162 179 195 264 228 132 137 185 177 186 191 188 188 187 189 196 199 202 212 205 204 208 205 208 218 223 227 227 229
290 292 291 287 276 276 276 283 280 276 271 262 248 237 231 229 237 217 208 201 189 186 191 188 160 166 199 185 168 212 202 199 170 211 217 190 188 189 189 186 186 191 195 197 195 197 199 206 214 221 224 225 229 229
291 291 288 279 274 276 282 280 278 275 268 255 239 229 222 223 219 205 202 203 194 196 192 186 181 145 187 207 182 185 187 167 137 173 185 176 197 184 187 191 186 184 190 189 195 199 203 209 214 221 228 229 228 229
291 287 279 271 278 282 278 275 271 262 243 224 208 194 199 201 196 200 198 197 189 189 187 190 197 210 212 221 210 209 173 132 140 179 169 169 190 178 175 175 184 189 199 204 200 204 207 207 215 221 228 232 231 228
279 274 268 279 275 267 267 256 252 200 186 158 148 170 181 192 198 201 204 190 182 180 179 191 198 198 209 211 212 219 215 196 112 160 174 151 168 180 191 212 207 197 211 198 186 186 199 211 218 222 224 225 225 226
265 263 271 258 250 242 222 195 166 164 156 157 143 117 109 112 118 161 169 172 177 182 190 203 201 206 211 215 218 220 223 192 181 162 147 143 156 154 148 164 173 180 183 191 199 202 213 223 219 218 221 224 223 225
257 248 229 220 207 193 178 166 161 156 153 160 166 163 116 121 132 135 163 168 177 188 204 206 207 213 220 221 219 223 227 209 171 173 181 170 159 164 179 177 178 179 186 191 196 201 206 207 212 220 226 231 234 237
209 190 174 166 168 161 168 148 145 142 136 150 155 147 145 145 144 158 161 168 178 187 190 197 208 218 228 237 237 230 214 232 221 199 237 216 192 180 190 204 194 193 194 196 200 204 209 214 217 224 230 235 240 244
152 146 139 134 131 125 133 133 130 128 125 121 121 117 110 115 122 125 125 127 134 145 159 179 197 216 229 237 242 243 240 240 233 223 220 223 230 219 211 206 207 202 202 206 210 214 216 220 219 221 231 252 264 261
135 129 128 129 124 127 121 119 121 121 120 120 117 116 122 125 130 132 126 123 125 124 127 143 157 185 210 226 240 247 247 244 241 236 231 229 229 229 222 220 221 222 224 225 222 222 227 232 236 246 254 264 277 276
121 122 130 123 123 123 123 120 114 109 106 106 107 116 119 113 108 109 112 107 97 96 93 106 117 132 195 231 233 241 247 250 251 249 243 236 232 231 233 234 232 233 230 230 232 234 236 241 249 253 256 271 281 276
124 125 126 127 122 111 104 105 102 98 96 92 88 100 113 98 103 107 104 100 94 80 73 70 69 56 37 21 261 259 268 264 254 246 244 244 243 239 236 235 233 231 232 234 235 239 243 248 251 253 263 270 267 264
126 117 106 108 109 104 99 105 102 93 86 90 86 94 102 84 81 109 118 98 84 77 66 59 45 82 72 42 30 330 310 290 271 265 258 242 235 233 237 239 239 238 240 242 245 248 249 249 252 255 259 256 256 258
111 110 110 105 98 94 96 100 110 112 92 99 91 83 107 95 90 99 103 97 84 70 79 55 33 10 34 60 44 24 9 351 317 287 265 233 225 224 221 223 226 228 234 239 242 243 245 244 243 239 239 237 252 253
121 121 108 101 100 97 94 95 102 105 99 96 94 82 83 87 88 91 91 83 85 75 56 62 67 78 74 54 57 48 34 31 28 14 235 194 201 208 208 206 198 196 200 211 219 221 225 239 243 236 238 251 252 236
116 113 125 103 91 96 93 86 99 98 96 97 108 119 122 103 82 56 52 50 49 66 73 80 76 70 73 82 76 61 56 47 56 74 101 159 180 190 192 186 199 197 196 208 203 226 232 227 226 225 235 261 260 253
Height
5777 5770 5763 5756 5748 5740 5732 5724 5717 5710 5704 5698 5692 5688 5683 5679 5675 5670 5665 5663 5663 5665 5662 5662 5665 5666 5667 5669 5671 5672 5680 5682 5687 5693 5700 5706 5713 5725 5737 5747 5750 5754 5761 5766 5773 5779 5786 5787 5781 5790 5789 5790 5799 5802
5767 5760 5753 5745 5737 5729 5721 5714 5707 5700 5694 5688 5683 5678 5673 5669 5664 5661 5656 5654 5653 5652 5654 5651 5655 5657 5658 5660 5663 5666 5669 5674 5679 5684 5690 5696 5705 5716 5728 5737 5745 5749 5754 5762 5769 5773 5778 5779 5778 5782 5787 5790 5790 5797
5757 5749 5742 5733 5725 5718 5710 5703 5697 5690 5684 5678 5672 5667 5662 5657 5654 5651 5648 5644 5643 5642 5644 5643 5646 5648 5649 5651 5655 5659 5661 5666 5671 5676 5681 5689 5696 5703 5715 5727 5739 5745 5748 5755 5763 5767 5763 5769 5772 5779 5783 5786 5790 5794
5746 5738 5731 5722 5714 5707 5700 5693 5687 5680 5674 5668 5662 5656 5651 5648 5643 5640 5637 5635 5633 5634 5634 5636 5637 5639 5641 5643 5647 5650 5652 5658 5663 5668 5673 5679 5687 5695 5703 5709 5718 5726 5739 5743 5749 5754 5757 5758 5764 5771 5775 5780 5784 5787
5733 5726 5719 5711 5704 5697 5691 5684 5678 5671 5664 5658 5651 5646 5640 5636 5633 5629 5627 5626 5626 5627 5627 5628 5630 5632 5634 5636 5639 5642 5646 5651 5655 5661 5667 5673 5679 5684 5693 5703 5712 5721 5726 5735 5744 5747 5748 5752 5756 5759 5765 5773 5778 5782
5723 5715 5707 5700 5693 5687 5681 5674 5668 5661 5654 5648 5641 5635 5629 5625 5623 5620 5620 5618 5619 5619 5620 5620 5623 5624 5626 5629 5632 5635 5639 5644 5649 5653 5659 5666 5672 5675 5685 5695 5706 5715 5721 5721 5731 5730 5731 5736 5740 5747 5759 5766 5769 5774
5710 5703 5696 5689 5683 5676 5670 5664 5657 5650 5644 5638 5632 5625 5621 5618 5617 5614 5614 5613 5613 5614 5613 5614 5615 5618 5620 5623 5626 5629 5633 5638 5642 5647 5652 5659 5664 5670 5678 5684 5696 5707 5708 5709 5714 5716 5722 5728 5736 5742 5748 5754 5761 5765
5697 5690 5683 5677 5671 5665 5660 5654 5647 5641 5635 5629 5623 5618 5613 5611 5610 5608 5606 5606 5608 5608 5608 5609 5610 5613 5615 5617 5621 5624 5627 5631 5636 5641 5647 5652 5657 5661 5668 5676 5684 5692 5694 5696 5708 5713 5720 5722 5726 5733 5737 5743 5748 5754
5683 5677 5671 5666 5661 5656 5650 5645 5638 5632 5626 5621 5615 5611 5607 5606 5604 5602 5602 5603 5603 5605 5603 5603 5604 5607 5610 5613 5615 5619 5622 5624 5629 5632 5638 5644 5649 5653 5661 5669 5677 5681 5685 5693 5701 5706 5712 5712 5720 5725 5730 5735 5739 5744
5670 5665 5660 5654 5650 5645 5640 5635 5630 5624 5620 5615 5611 5608 5605 5603 5601 5600 5600 5600 5599 5600 5599 5600 5601 5602 5605 5607 5611 5615 5615 5618 5622 5627 5629 5636 5641 5647 5655 5664 5669 5674 5681 5689 5694 5698 5704 5707 5714 5718 5722 5725 5730 5735
5657 5652 5647 5643 5640 5636 5631 5627 5622 5617 5613 5610 5607 5604 5602 5600 5599 5597 5596 5597 5597 5597 5597 5598 5598 5600 5602 5604 5606 5608 5611 5614 5617 5621 5623 5627 5632 5637 5646 5658 5661 5666 5675 5681 5686 5695 5699 5700 5704 5709 5715 5719 5723 5728
5645 5640 5636 5633 5629 5625 5621 5618 5615 5612 5607 5604 5602 5601 5599 5597 5596 5595 5594 5595 5595 5595 5595 5595 5597 5597 5597 5597 5600 5604 5606 5609 5612 5614 5615 5618 5623 5629 5640 5648 5652 5661 5668 5674 5679 5684 5690 5680 5696 5702 5708 5712 5716 5720
5633 5628 5626 5623 5619 5616 5613 5611 5609 5605 5602 5599 5598 5597 5596 5595 5593 5592 5592 5592 5593 5593 5594 5594 5594 5594 5595 5596 5598 5601 5603 5607 5609 5610 5612 5615 5617 5625 5634 5640 5648 5653 5661 5668 5672 5676 5678 5681 5689 5696 5697 5705 5710 5715
5620 5618 5616 5613 5610 5608 5606 5604 5602 5600 5597 5595 5594 5593 5592 5591 5590 5590 5590 5591 5592 5593 5593 5593 5593 5594 5596 5597 5598 5600 5603 5603 5603 5605 5607 5610 5613 5618 5627 5632 5638 5647 5655 5659 5666 5674 5677 5682 5684 5691 5692 5698 5701 5709
5609 5608 5606 5603 5601 5599 5598 5597 5595 5593 5591 5590 5590 5588 5588 5587 5586 5587 5587 5588 5590 5592 5593 5593 5594 5594 5595 5596 5597 5598 5599 5598 5598 5595 5596 5603 5607 5614 5620 5626 5632 5643 5650 5657 5660 5666 5673 5679 5684 5689 5691 5694 5698 5703
5600 5599 5597 5594 5593 5592 5591 5590 5588 5586 5585 5584 5584 5583 5582 5582 5583 5583 5585 5586 5588 5589 5591 5593 5593 5593 5593 5594 5595 5595 5595 5595 5590 5593 5593 5599 5604 5611 5616 5623 5632 5638 5645 5652 5659 5666 5671 5675 5679 5683 5687 5691 5694 5696
5591 5590 5588 5587 5585 5584 5583 5582 5580 5579 5578 5578 5578 5577 5578 5578 5579 5580 5581 5583 5585 5587 5589 5591 5592 5592 5593 5594 5594 5593 5592 5594 5595 5595 5596 5600 5605 5611 5615 5622 5629 5636 5643 5651 5658 5663 5669 5673 5676 5680 5684 5686 5689 5691
5581 5581 5580 5579 5578 5577 5576 5575 5573 5573 5572 5571 5571 5572 5573 5574 5575 5576 5578 5580 5582 5585 5587 5589 5590 5592 5593 5593 5592 5594 5592 5594 5593 5595 5598 5601 5605 5609 5613 5619 5625 5633 5640 5645 5652 5659 5665 5667 5671 5675 5678 5680 5683 5686
5574 5573 5572 5571 5571 5571 5570 5569 5568 5567 5566 5565 5566 5567 5568 5570 5572 5573 5575 5577 5580 5583 5585 5588 5590 5591 5592 5593 5592 5593 5595 5594 5596 5598 5600 5601 5605 5609 5614 5618 5623 5630 5636 5643 5650 5655 5660 5664 5668 5671 5673 5676 5679 5681
5567 5567 5565 5565 5566 5565 5564 5563 5562 5561 5561 5561 5562 5563 5564 5566 5568 5570 5572 5575 5578 5581 5584 5586 5589 5590 5591 5592 5593 5594 5595 5596 5597 5598 5600 5604 5606 5610 5614 5620 5625 5631 5636 5641 5647 5651 5656 5660 5663 5666 5669 5671 5673 5675
5561 5561 5561 5561 5561 5560 5559 5559 5558 5558 5558 5558 5559 5560 5561 5563 5566 5568 5570 5572 5576 5580 5583 5586 5587 5589 5591 5592 5594 5594 5596 5597 5598 5599 5600 5603 5607 5611 5615 5619 5624 5629 5634 5639 5645 5649 5652 5656 5659 5662 5664 5666 5668 5670
5557 5557 5557 5557 5557 5556 5556 5556 5556 5556 5557 5558 5558 5559 5560 5562 5563 5566 5568 5571 5576 5580 5584 5586 5588 5589 5591 5592 5593 5595 5598 5599 5600 5601 5603 5605 5608 5612 5616 5621 5624 5628 5633 5637 5642 5646 5651 5654 5656 5658 5660 5662 5664 5667
5554 5554 5555 5554 5554 5554 5555 5555 5555 5556 5557 5558 5559 5560 5561 5562 5563 5566 5569 5572 5577 5580 5583 5585 5587 5589 5591 5593 5595 5597 5599 5600 5603 5605 5606 5608 5610 5613 5617 5622 5625 5628 5631 5635 5639 5644 5648 5651 5653 5655 5657 5659 5661 5663
5550 5551 5552 5552 5553 5553 5554 5555 5556 5557 5557 5558 5559 5562 5564 5567 5568 5570 5572 5575 5578 5581 5583 5585 5587 5589 5591 5594 5597 5598 5601 5602 5603 5605 5609 5611 5613 5616 5618 5621 5625 5628 5631 5635 5638 5642 5645 5647 5650 5652 5654 5656 5657 5659
5550 5551 5552 5551 5552 5553 5554 5556 5557 5558 5559 5559 5561 5563 5566 5568 5571 5572 5574 5577 5579 5582 5583 5585 5587 5589 5590 5593 5595 5598 5602 5603 5604 5607 5609 5612 5615 5617 5620 5623 5625 5628 5631 5634 5637 5640 5642 5644 5646 5648 5650 5652 5653 5654
5549 5550 5551 5551 5553 5555 5557 5558 5559 5561 5562 5564 5565 5567 5569 5571 5573 5575 5578 5580 5582 5583 5584 5586 5587 5588 5590 5591 5593 5595 5598 5601 5603 5606 5608 5611 5614 5616 5618 5621 5623 5625 5628 5631 5633 5636 5638 5640 5642 5644 5646 5647 5648 5649
5550 5551 5553 5555 5557 5559 5560 5561 5563 5565 5567 5568 5570 5572 5574 5575 5577 5579 5580 5581 5583 5585 5586 5587 5588 5589 5590 5591 5591 5592 5593 5596 5598 5601 5604 5607 5609 5612 5614 5617 5619 5622 5626 5628 5629 5631 5634 5636 5638 5640 5641 5642 5642 5642
5553 5555 5558 5560 5561 5563 5565 5567 5569 5571 5573 5574 5575 5576 5577 5579 5581 5582 5583 5584 5585 5586 5587 5588 5589 5589 5590 5590 5591 5591 5592 5593 5593 5594 5596 5599 5602 5605 5607 5610 5613 5617 5619 5621 5624 5626 5628 5630 5632 5633 5635 5635 5635 5635
5558 5560 5563 5565 5567 5570 5573 5575 5576 5577 5577 5577 5578 5579 5581 5582 5583 5584 5586 5586 5587 5588 5589 5589 5590 5589 5589 5589 5590 5590 5590 5590 5590 5591 5591 5592 5593 5596 5598 5601 5605 5608 5611 5613 5617 5620 5623 5624 5625 5627 5628 5628 5628 5628
5565 5568 5571 5573 5575 5578 5580 5581 5582 5584 5583 5583 5584 5583 5584 5586 5586 5587 5589 5590 5590 5591 5591 5591 5590 5590 5590 5590 5589 5589 5588 5588 5587 5587 5587 5588 5589 5590 5592 5594 5597 5600 5603 5605 5608 5610 5613 5615 5617 5618 5619 5621 5621 5622
5574 5577 5579 5581 5583 5585 5586 5587 5587 5588 5589 5591 5590 5590 5590 5591 5591 5592 5593 5593 5594 5594 5594 5593 5592 5591 5591 5590 5590 5589 5587 5586 5585 5584 5584 5584 5586 5587 5589 5591 5593 5595 5597 5599 5600 5601 5603 5605 5607 5609 5611 5613 5614 5615
5582 5585 5587 5589 5590 5591 5591 5592 5592 5594 5595 5595 5595 5596 5596 5595 5596 5596 5596 5596 5596 5596 5596 5594 5593 5593 5592 5591 5590 5589 5588 5586 5585 5584 5584 5584 5585 5586 5587 5589 5591 5592 5594 5596 5597 5599 5600 5602 5604 5606 5608 5608 5609 5610
5590 5591 5593 5594 5596 5597 5597 5597 5598 5598 5598 5599 5599 5599 5598 5599 5599 5600 5600 5599 5598 5598 5597 5597 5596 5595 5594 5593 5592 5591 5590 5588 5586 5586 5585 5585 5585 5586 5587 5588 5589 5591 5593 5595 5596 5597 5598 5599 5601 5602 5604 5606 5606 5606